Starlink 32041

operational
NORAD ID: 60202 Int'l Des: 2024-124 Owner: SPXS Country: US Constellation: starlink
LEOCIRCULAR

About Starlink 32041

Description loading...

Live Position

Loading 3D Globe...

Upcoming Passes

Altitude History

Altitude vs Time

uPlot chart will show altitude changes over time

Two-Line Element Set

1 60202U 24124V 25258.17700644 -.00000347 00000-0 40370-6 0 9999
2 60202 53.1613 57.7498 0001037 82.7283 277.3836 15.30195372 68626
Epoch: Sep 15, 2025 • Age: 11 hours

Current Status

Altitude 479.2 km
Velocity 7.63 km/s
Sub-Earth Point 44.67°N, 124.15°W
Launch Date Jul 3, 2024
Age 1.2 years
Type internet

Technical Details

Classification Payload
Mass 730.00 kg
Dry Mass 700.00 kg
Total Mass 730.00 kg
Length 0.30 m
Diameter 4.10 m
Span 29.00 m
Shape Box + pan
Manufacturer SPXS
Bus Type Starlink V2M
Phase Status In Orbit
Owner/State SPXS/US

Large Constellations

Loading constellations...